EHI
3 4 5 5 5 6 8 8 8 8 9 8 8 9 7 4 2 1 1 1 0 0 0 0 0 1 0 0 1 3 4 3 1 0 0 0 0 0 0 0 0 0 0
3 4 6 7 6 6 8 8 7 7 7 7 7 7 7 5 3 2 1 0 0 0 0 0 0 1 0 1 2 4 5 3 1 0 0 0 0 0 0 0 0 0 0
2 3 5 7 6 6 7 6 6 6 6 6 6 7 7 7 5 3 2 1 0 0 0 0 0 0 0 1 4 5 5 2 1 0 0 0 0 0 0 0 0 0 0
1 2 5 7 7 7 7 5 4 4 5 6 6 7 7 5 4 4 2 1 0 0 0 0 0 0 1 3 4 4 2 1 0 0 0 0 0 0 0 0 0 0 0
2 2 5 10 11 10 9 6 4 4 4 6 6 7 6 4 3 2 1 0 0 0 0 0 1 1 2 3 4 2 0 0 0 0 0 0 0 0 0 0 0 0 0
2 2 5 10 12 13 11 8 6 5 4 5 6 6 6 5 4 3 2 0 1 1 1 1 2 2 1 1 2 1 0 0 0 0 0 0 0 0 0 0 0 0 0
2 2 3 6 10 13 14 12 10 8 6 5 6 6 6 5 4 4 2 1 2 3 2 2 3 3 1 0 0 0 0 0 0 0 0 0 0 0 0 0 0 0 0
2 1 2 3 7 11 14 14 13 10 6 4 5 6 6 5 4 3 2 3 5 6 5 3 3 2 1 1 1 1 0 0 0 0 0 0 0 0 0 0 0 0 0
1 0 1 2 4 8 12 13 13 10 5 2 3 6 6 5 4 2 2 3 6 8 6 4 4 2 1 2 2 1 0 0 0 0 0 0 0 0 0 0 0 0 0
0 0 1 3 4 6 8 9 9 8 4 1 2 4 5 4 2 1 1 2 5 5 4 4 4 2 1 2 2 1 1 0 0 0 0 0 0 0 1 1 1 1 0
1 1 2 4 5 5 6 5 5 5 3 1 0 2 4 3 1 1 1 1 3 3 2 1 2 2 1 1 2 2 1 1 0 0 0 0 0 1 2 4 4 3 1
2 2 2 3 4 5 5 4 3 3 2 1 0 0 1 2 2 2 1 1 2 2 1 0 0 0 1 2 3 3 2 1 0 0 0 0 0 1 3 6 7 5 3
1 1 1 1 2 3 4 3 1 1 1 0 0 0 0 1 2 2 2 2 3 2 1 1 1 0 1 3 3 3 3 1 0 0 0 0 0 0 2 6 9 8 6
0 1 1 1 1 2 2 2 1 0 0 0 0 0 0 0 0 1 2 2 2 2 2 2 1 1 2 3 3 3 3 2 0 0 0 0 0 0 2 5 8 8 7
1 2 2 2 1 1 1 1 0 0 0 0 0 0 0 0 0 0 1 1 1 1 2 1 1 1 2 2 2 2 2 1 0 0 0 0 0 0 1 3 5 7 8
3 3 3 2 1 0 0 0 0 0 0 0 0 0 0 0 0 0 0 0 0 0 0 0 0 0 1 1 1 0 0 0 0 0 0 0 0 0 1 1 2 4 6
3 3 3 2 0 0 0 0 0 0 0 0 0 0 0 0 0 0 0 0 0 0 0 0 0 0 0 0 0 0 0 0 0 0 0 0 0 0 1 0 1 2 3
4 3 3 2 0 0 0 0 0 0 0 0 0 0 0 0 0 0 0 0 0 0 0 0 0 0 0 0 0 0 0 0 0 0 0 0 0 1 1 0 1 3 4
5 4 2 1 0 0 0 0 0 0 0 0 0 0 0 0 0 0 0 0 0 0 0 0 0 0 0 0 0 0 0 0 0 0 0 0 0 1 2 1 2 3 4
6 5 2 0 0 0 0 0 0 0 0 0 0 0 0 0 0 1 1 0 0 0 0 0 0 0 0 0 0 0 0 0 0 0 0 0 0 1 2 2 2 2 2
6 5 3 1 1 0 0 0 0 0 0 0 0 0 1 1 1 2 2 1 0 0 0 0 0 0 0 0 0 0 0 0 0 0 0 0 0 0 1 1 1 0 0
7 6 4 3 2 1 0 0 0 0 0 0 0 0 1 2 3 3 2 1 0 0 0 0 0 0 0 0 0 0 0 0 0 0 0 0 0 0 0 0 0 0 0
8 6 4 3 3 2 1 1 1 1 0 0 0 0 1 2 3 3 1 0 0 0 0 0 0 0 0 0 0 0 0 0 0 0 0 0 0 0 0 0 0 0 0
8 7 6 4 3 3 3 2 2 2 1 0 0 0 0 1 2 2 1 0 0 0 0 0 0 1 1 1 1 0 0 0 0 0 0 0 0 1 1 0 0 0 0
8 8 7 5 4 4 4 3 3 3 1 1 0 0 0 0 1 1 0 0 0 0 0 0 1 2 3 3 2 1 0 0 0 0 0 0 1 2 2 1 0 0 0
8 8 7 6 6 5 5 4 3 3 2 2 1 0 0 0 0 0 0 0 0 0 0 1 2 3 5 4 3 2 1 0 0 1 1 1 1 2 2 1 1 1 1
Wind_Speed
1 1 3 5 6 6 7 7 7 8 9 10 10 11 11 11 12 12 11 11 12 11 11 11 10 10 10 10 11 10 10 10 10 10 10 10 9 9 8 8 8 6 8
2 2 4 5 6 6 7 7 7 8 9 9 10 10 10 11 11 11 11 11 11 11 11 10 10 10 9 10 10 10 10 10 10 10 9 8 8 8 8 8 7 5 7
2 2 3 5 5 6 6 7 7 8 8 9 9 10 10 10 10 10 10 10 10 11 10 10 9 9 8 8 9 9 9 9 9 8 8 5 5 7 7 7 7 7 7
3 2 3 5 6 6 6 6 6 7 8 8 9 9 9 10 10 10 9 9 10 10 9 9 8 8 8 7 7 7 7 7 7 7 4 4 4 6 7 7 7 7 7
3 2 2 5 5 6 6 6 6 6 6 7 8 8 9 9 9 9 9 8 9 9 8 8 8 7 7 7 7 6 6 6 6 5 4 3 2 5 7 7 7 6 6
2 2 2 5 4 5 6 6 6 6 6 6 7 7 8 8 8 8 8 8 7 7 8 8 7 7 6 6 6 6 5 5 4 3 3 3 2 4 6 6 6 6 6
2 1 2 4 4 4 5 5 6 5 5 6 6 6 7 7 7 7 7 7 7 7 7 7 7 6 6 5 5 5 5 5 3 3 3 3 3 5 6 6 5 6 6
2 2 2 3 3 4 5 5 5 5 4 6 5 6 6 6 6 6 6 5 6 6 6 6 6 6 5 5 5 4 5 4 4 3 3 3 5 6 6 5 5 5 5
3 3 2 1 1 3 4 4 4 4 4 5 4 4 5 5 5 5 5 5 5 5 5 5 5 5 4 4 4 4 4 4 3 2 3 2 4 6 6 6 5 5 5
3 2 2 2 2 2 2 3 4 3 3 4 3 3 4 4 4 4 3 4 4 4 4 4 5 4 4 3 3 4 4 3 2 3 2 3 5 5 6 5 5 5 5
2 2 2 2 2 2 2 2 3 2 2 2 2 2 2 2 2 2 2 3 3 3 3 3 4 4 3 2 3 3 3 1 2 2 2 4 4 5 5 5 5 5 5
1 1 1 1 1 1 1 2 2 1 1 1 1 1 2 2 1 1 2 2 2 2 2 2 2 2 1 1 1 2 1 2 2 2 2 4 5 5 5 5 5 5 4
2 1 0 0 1 1 1 1 1 1 2 2 2 2 2 2 1 1 1 0 0 1 1 1 1 1 1 1 1 1 1 1 1 1 2 4 5 5 5 5 5 5 4
2 2 1 1 1 1 1 1 1 1 1 1 1 2 2 1 1 1 1 1 1 1 1 1 1 1 2 1 1 1 1 1 1 1 2 4 4 5 5 5 5 5 5
3 3 1 1 1 1 1 1 1 1 1 1 1 1 2 2 1 1 1 1 1 1 1 1 1 1 1 1 1 1 1 2 2 1 1 3 3 4 5 5 5 6 6
4 3 2 1 1 2 1 1 1 1 1 1 1 1 2 2 1 1 1 1 1 1 1 1 1 1 1 1 1 1 0 1 2 1 1 1 3 4 4 5 5 5 5
4 3 2 2 1 1 1 1 1 0 1 1 1 1 2 2 2 1 1 1 0 1 1 1 1 1 1 1 1 1 1 1 1 1 0 0 1 3 4 4 4 4 4
4 3 3 2 2 1 1 1 1 1 1 1 1 1 1 1 2 2 1 1 1 1 1 1 1 1 1 1 1 1 1 1 1 0 0 0 0 0 1 2 2 2 2
5 4 3 2 2 2 1 1 1 1 1 1 1 1 1 1 2 2 1 1 1 1 1 1 1 2 2 1 1 1 1 1 1 1 1 1 1 1 0 0 1 1 1
5 4 4 3 2 2 1 1 1 1 1 1 0 1 1 1 2 2 1 1 1 1 1 1 2 2 1 1 1 1 1 1 1 2 1 1 1 1 1 1 1 1 1
4 4 4 3 2 2 1 1 1 0 0 0 0 1 1 1 2 2 1 1 1 1 1 2 2 2 1 1 2 1 2 2 2 2 2 1 2 1 1 1 1 1 1
6 5 5 4 3 3 2 2 1 1 1 1 0 0 1 1 2 2 2 2 2 1 2 2 2 2 1 1 2 1 1 2 2 2 1 1 1 1 2 1 1 1 1
7 7 6 5 4 3 3 2 2 2 2 1 1 0 1 1 1 1 2 2 2 2 2 2 2 3 2 1 1 2 1 0 1 1 1 1 1 1 1 1 1 1 1
8 7 6 5 4 4 4 3 4 3 2 2 1 1 1 1 1 2 2 2 2 2 2 2 2 2 3 2 0 0 1 2 1 1 1 1 1 1 1 1 1 1 1
7 7 6 5 4 4 4 4 4 3 2 1 0 0 0 1 1 1 2 2 2 2 2 2 2 2 2 2 2 1 1 1 1 1 1 1 1 1 1 1 1 1 1
6 6 6 5 4 4 5 4 5 4 3 2 1 1 1 0 1 1 2 2 2 2 2 2 2 3 2 2 2 2 2 2 2 2 2 1 1 2 2 1 1 1 1
Wind_Direction
228 214 159 138 135 130 125 121 123 125 125 125 125 126 131 132 135 139 140 142 143 143 142 139 137 131 130 132 135 135 136 134 135 137 138 141 140 136 135 132 126 125 130
157 158 150 135 135 131 125 121 121 124 125 126 126 128 132 134 135 139 139 140 142 142 141 139 138 133 132 134 136 133 133 134 134 141 142 145 148 146 144 140 135 137 139
121 137 144 139 134 131 125 122 121 124 126 127 128 129 131 134 136 138 138 139 141 142 142 139 137 136 138 138 134 133 135 137 138 143 141 143 155 155 152 147 144 145 144
125 128 144 137 132 132 129 124 122 124 128 129 131 131 131 132 135 137 138 142 142 142 142 141 141 140 137 137 135 135 139 140 142 142 136 140 151 156 155 150 150 149 150
113 119 154 135 135 133 127 123 125 126 130 132 133 134 133 133 134 136 138 139 141 141 143 145 144 145 145 141 140 143 143 141 145 140 130 132 143 160 158 154 156 153 149
122 120 142 134 136 135 130 131 128 124 129 134 135 135 135 136 138 139 139 139 140 142 147 147 146 149 150 147 144 145 150 147 142 129 130 140 155 170 160 160 157 151 148
129 112 126 135 130 132 134 131 127 130 135 138 135 137 138 138 142 143 142 141 143 147 150 149 148 150 152 151 152 153 153 151 135 133 146 150 159 166 166 165 159 153 152
117 103 101 139 129 117 118 119 116 117 125 135 134 137 143 147 150 150 147 145 148 150 151 151 150 152 151 157 164 164 162 151 139 149 160 165 168 170 170 166 165 162 159
84 86 69 62 77 95 102 107 115 115 122 137 139 140 144 149 150 149 151 154 158 158 157 158 157 158 153 157 166 165 165 161 149 158 168 171 182 179 175 173 169 169 167
73 75 69 49 46 50 64 92 106 119 121 136 147 146 144 140 141 147 153 161 160 160 163 166 168 165 159 158 166 170 172 171 160 160 167 177 190 190 185 184 183 185 185
78 58 59 48 47 54 59 81 81 101 115 123 143 155 129 100 109 138 151 156 155 159 164 167 166 155 156 156 151 151 164 164 159 166 181 180 190 201 199 197 195 194 194
146 76 65 59 49 50 60 58 43 49 56 68 70 79 88 95 107 121 147 157 151 147 147 144 144 134 120 92 115 133 140 155 164 182 193 194 201 210 212 211 207 202 197
171 150 141 106 68 69 57 61 48 46 45 48 59 84 90 88 93 87 85 108 99 112 81 67 68 74 86 94 98 126 161 166 178 193 200 199 202 211 215 218 213 202 204
156 179 191 158 116 91 88 68 70 60 51 45 57 79 88 86 78 73 79 66 65 70 79 75 80 70 69 85 110 120 151 160 174 193 196 201 211 219 221 226 225 210 211
165 184 192 157 142 120 99 82 92 73 69 61 75 81 103 109 103 89 78 70 65 76 95 97 93 84 73 63 80 95 133 156 164 178 203 203 220 228 226 229 232 224 215
179 183 176 153 145 124 108 91 75 82 72 62 68 81 102 111 110 97 79 75 82 97 113 121 119 112 99 86 71 65 88 141 144 160 181 218 226 230 227 231 237 234 221
177 172 175 166 135 129 133 123 93 76 92 93 78 81 102 111 117 113 95 87 89 113 115 109 108 109 110 104 80 61 51 74 90 120 176 223 246 229 224 234 244 243 229
169 168 177 171 152 148 138 118 94 72 98 110 120 105 106 112 120 116 108 102 99 106 114 123 124 113 100 93 74 44 50 58 62 61 82 92 26 306 246 237 266 264 235
179 172 169 167 169 170 147 110 103 84 84 101 107 116 125 120 125 125 123 107 111 117 126 146 132 135 120 103 93 64 43 46 24 40 57 69 64 36 17 326 301 285 251
180 171 170 170 175 153 120 83 65 55 51 70 118 159 149 132 130 127 126 111 112 112 110 134 134 123 129 123 96 59 34 29 48 46 46 56 62 53 35 8 336 304 288
176 171 175 173 181 148 133 135 133 179 238 334 198 180 158 145 144 140 131 114 120 127 136 136 125 115 105 106 90 49 28 32 44 44 48 56 45 36 35 15 359 338 321
185 182 180 184 182 175 167 158 154 150 182 194 309 48 158 161 165 163 153 148 145 133 124 126 122 118 128 114 117 98 24 356 3 14 36 53 29 27 29 19 6 352 333
191 191 191 190 185 180 161 123 98 68 40 40 18 329 265 185 174 171 170 160 155 156 162 163 150 144 152 147 113 130 128 237 331 352 350 7 7 6 348 339 356 337 327
200 194 189 185 181 174 157 151 151 156 181 215 213 233 276 214 202 195 179 172 168 168 174 185 159 155 154 165 149 91 157 158 154 321 327 319 312 318 312 310 318 326 339
194 189 187 179 180 174 166 167 163 172 195 197 160 207 287 296 256 222 187 181 181 184 189 185 164 168 172 174 177 162 130 107 143 178 267 300 311 295 289 284 288 307 335
186 184 180 176 186 181 178 176 177 181 179 167 185 210 249 287 279 250 197 194 194 191 190 187 181 186 195 190 185 177 171 171 181 180 215 255 276 282 276 263 259 264 275